Location: Endfield
(51.6667°N, 0.0667°W)
Time: 13:52:34
(UTC+00:00)

Spot 2 - Pass Details

Date: 19 May 2024
Orbit: 565 x 758 km, 98.6° (Epoch: 16 June)

Event Time Altitude Azimuth Distance (km) Brightness Sun altitude
Exits shadow 22:50:46 29° 142° (SE) 1,234 5.1 -16.9°
Maximum altitude 22:53:02 64° 70° (ENE) 765 4.5 -17.0°
Drops below altitude 10° 22:57:48 10° 350° (N) 2,206 8.2 -17.1°
Sets 23:00:10 0° 347° (NNW) 3,156 9.5 -17.2°
